Location: Le Rocchette
(44.3500°N, 7.8333°E)
Time: 00:55:24
(UTC+00:00)

PSLV R/B - Pass Details

Date: 28 February 2020
Orbit: 505 x 578 km, 97.8° (Epoch: 01 April)

Event Time Altitude Azimuth Distance (km) Brightness Sun altitude
Rises 04:08:06 0° 22° (NNE) 2,662 7.8 -22.3°
Reaches altitude 10° 04:10:22 10° 33° (NNE) 1,780 7.0 -21.9°
Maximum altitude 04:13:49 31° 97° (E) 952 5.6 -21.3°
Drops below altitude 10° 04:17:19 10° 161° (SSE) 1,805 6.6 -20.7°
Sets 04:19:37 0° 172° (S) 2,707 7.4 -20.3°
